Flock 4g-8

operational
NORAD ID: 62613 Int'l Des: 2025-009 Owner: PLAN Country: US Constellation: planet
LEOCIRCULARRETROGRADESSO

关于 Flock 4g-8

正在加载描述...

实时位置

正在加载3D地球...

即将过境

高度历史

Altitude vs Time

uPlot chart will show altitude changes over time

两行轨道根数

1 62613U 25009E 26061.12483946 .00013870 00000-0 51954-3 0 9992
2 62613 97.4070 143.7369 0003463 349.2007 10.9157 15.27385672 62569
Epoch: Mar 2, 2026 • Age: 25 hours

当前状态

高度 494.4 km
速度 7.62 km/s
星下点 65.11°N, 51.81°W
发射日期 Jan 14, 2025
运行时间 1.1 years
类型 earth observation

技术详情

分类 Payload
质量 5.70 kg
干质量 5.70 kg
总质量 5.70 kg
长度 0.30 m
直径 0.10 m
跨度 0.30 m
形状 Box+2 pan
制造商 PLAN
平台类型 Cubesat 3U
阶段状态 In Orbit
所有者/国家 PLAN/US

大型星座

Loading constellations...